User: anonymous   Login
Location: Palmerston North
(40.3500°S, 175.6170°E)
Time: 05:39:18
(UTC+13:00)
Language:

CZ-2D R/B - Orbit

View from above orbital plane
View from above orbital plane
View from above satellite
View from above satellite

Ground track
Ground track

The orbit data is extracted from the following two-line orbital elements,

1 28738U 05024B   19077.51230820 +.00000353 +00000-0 +24406-4 0  9995
2 28738 097.4254 109.1297 0011027 328.5927 031.4643 15.11745572752369
Epoch (UTC): 18 March 2019 12:17:43
Eccentricity: 0.0011027
inclination: 97.4254°
perigee height: 523 km
apogee height: 538 km
right ascension of ascending node: 109.1297°
argument of perigee: 328.5927°
revolutions per day: 15.11745572
mean anomaly at epoch: 31.4643°
orbit number at epoch: 75236

The dashed part of the orbit path shows where the satellite is in the earth's shadow,  

DLR